Terminal Aerodrome Forecast
Issued by NWS

Current Version | Previous Version | Graphics & Text | Print | Product List | Glossary On
Versions: 1 2 3 4 5 6 7 8 9 10 11 12 13 14 15 16 17
000
FTUS41 KPBZ 081122
TAFMGW
TAF
KMGW 081122Z 0812/0912 21005KT P6SM BKN100
     FM081500 27010G20KT P6SM BKN025
     FM082300 27010G20KT P6SM BKN035
     FM090600 26010G22KT P6SM OVC025=

USA.gov is the U.S. government's official web portal to all federal, state and local government web resources and services.